TimePST,TemperatureF,Dew PointF,Humidity,Sea Level PressureIn,VisibilityMPH,Wind Direction,Wind SpeedMPH,Gust SpeedMPH,PrecipitationIn,Events,Conditions,WindDirDegrees,DateUTC
12:15 AM,41.0,37.4,87,29.68,9.0,Calm,Calm,-,N/A,,Overcast,0,2013-03-06 08:15:00
12:35 AM,41.0,37.4,87,29.67,9.0,Calm,Calm,-,N/A,,Overcast,0,2013-03-06 08:35:00
12:55 AM,41.0,37.4,87,29.66,10.0,Calm,Calm,-,N/A,,Overcast,0,2013-03-06 08:55:00
1:15 AM,41.0,37.4,87,29.65,6.0,Calm,Calm,-,N/A,,Mostly Cloudy,0,2013-03-06 09:15:00
1:35 AM,41.0,37.4,87,29.64,7.0,Calm,Calm,-,N/A,,Overcast,0,2013-03-06 09:35:00
1:55 AM,39.2,37.4,93,29.64,9.0,Calm,Calm,-,N/A,,Overcast,0,2013-03-06 09:55:00
2:15 AM,41.0,37.4,87,29.63,10.0,Calm,Calm,-,N/A,,Overcast,0,2013-03-06 10:15:00
2:35 AM,41.0,37.4,87,29.62,8.0,Calm,Calm,-,N/A,,Overcast,0,2013-03-06 10:35:00
2:55 AM,39.2,37.4,93,29.61,7.0,Calm,Calm,-,N/A,,Overcast,0,2013-03-06 10:55:00
3:15 AM,39.2,37.4,93,29.61,10.0,Calm,Calm,-,N/A,,Overcast,0,2013-03-06 11:15:00
3:35 AM,39.2,37.4,93,29.60,6.0,Calm,Calm,-,N/A,,Overcast,0,2013-03-06 11:35:00
3:55 AM,41.0,37.4,87,29.59,7.0,Calm,Calm,-,N/A,,Overcast,0,2013-03-06 11:55:00
4:15 AM,41.0,37.4,87,29.59,10.0,Calm,Calm,-,0.01,,Overcast,0,2013-03-06 12:15:00
4:35 AM,41.0,37.4,87,29.58,6.0,Calm,Calm,-,0.01,,Overcast,0,2013-03-06 12:35:00
4:55 AM,41.0,37.4,87,29.58,7.0,Calm,Calm,-,0.02,,Overcast,0,2013-03-06 12:55:00
5:15 AM,41.0,37.4,87,29.58,6.0,Calm,Calm,-,N/A,,Overcast,0,2013-03-06 13:15:00
5:35 AM,41.0,37.4,87,29.58,5.0,Calm,Calm,-,0.01,,Overcast,0,2013-03-06 13:35:00
5:55 AM,41.0,37.4,87,29.58,6.0,Calm,Calm,-,0.02,,Overcast,0,2013-03-06 13:55:00
6:15 AM,41.0,37.4,87,29.58,6.0,Calm,Calm,-,0.01,,Overcast,0,2013-03-06 14:15:00
6:35 AM,41.0,37.4,87,29.57,8.0,Calm,Calm,-,0.02,,Overcast,0,2013-03-06 14:35:00
6:55 AM,41.0,37.4,87,29.57,7.0,Calm,Calm,-,0.03,,Overcast,0,2013-03-06 14:55:00
7:15 AM,41.0,37.4,87,29.57,7.0,Calm,Calm,-,N/A,,Overcast,0,2013-03-06 15:15:00
7:35 AM,41.0,37.4,87,29.57,10.0,Calm,Calm,-,N/A,,Overcast,0,2013-03-06 15:35:00
7:55 AM,42.8,37.4,81,29.58,8.0,North,4.6,-,N/A,,Overcast,350,2013-03-06 15:55:00
8:15 AM,42.8,37.4,81,29.59,9.0,NNW,3.5,-,N/A,,Overcast,340,2013-03-06 16:15:00
8:35 AM,42.8,37.4,81,29.59,5.0,Calm,Calm,-,N/A,,Overcast,0,2013-03-06 16:35:00
8:55 AM,42.8,37.4,81,29.60,8.0,Calm,Calm,-,N/A,,Overcast,0,2013-03-06 16:55:00
9:15 AM,42.8,39.2,87,29.61,8.0,NNW,3.5,-,0.01,,Overcast,330,2013-03-06 17:15:00
9:35 AM,42.8,37.4,81,29.61,4.0,Calm,Calm,-,0.01,,Overcast,0,2013-03-06 17:35:00
9:55 AM,42.8,39.2,87,29.62,3.0,Calm,Calm,-,0.01,,Overcast,0,2013-03-06 17:55:00
10:15 AM,42.8,39.2,87,29.63,4.0,Calm,Calm,-,0.01,,Overcast,0,2013-03-06 18:15:00
10:35 AM,42.8,39.2,87,29.64,3.0,Calm,Calm,-,0.02,,Overcast,0,2013-03-06 18:35:00
10:55 AM,42.8,39.2,87,29.65,5.0,NW,3.5,-,0.03,,Overcast,310,2013-03-06 18:55:00
11:15 AM,42.8,39.2,87,29.65,5.0,Calm,Calm,-,N/A,,Overcast,0,2013-03-06 19:15:00
11:35 AM,42.8,39.2,87,29.66,2.5,Calm,Calm,-,N/A,,Overcast,0,2013-03-06 19:35:00
11:55 AM,42.8,39.2,87,29.68,3.0,South,5.8,-,0.01,,Overcast,190,2013-03-06 19:55:00
12:15 PM,42.8,39.2,87,29.68,2.5,South,5.8,-,0.01,,Overcast,170,2013-03-06 20:15:00
12:35 PM,42.8,39.2,87,29.69,5.0,SSE,8.1,-,0.02,,Overcast,160,2013-03-06 20:35:00
12:55 PM,44.6,39.2,81,29.70,7.0,SSE,8.1,-,0.02,,Overcast,150,2013-03-06 20:55:00
1:15 PM,44.6,39.2,81,29.71,7.0,SSE,6.9,-,0.02,,Overcast,160,2013-03-06 21:15:00
1:35 PM,44.6,41.0,87,29.72,5.0,South,5.8,-,0.03,,Overcast,170,2013-03-06 21:35:00
1:55 PM,44.6,39.2,81,29.73,7.0,SSE,5.8,-,0.05,,Overcast,160,2013-03-06 21:55:00
2:15 PM,44.6,39.2,81,29.73,10.0,SSE,5.8,-,0.01,,Overcast,160,2013-03-06 22:15:00
2:35 PM,44.6,39.2,81,29.74,10.0,SSE,4.6,-,0.02,,Overcast,150,2013-03-06 22:35:00
2:55 PM,44.6,39.2,81,29.75,10.0,SSE,6.9,-,0.03,,Overcast,150,2013-03-06 22:55:00
3:15 PM,44.6,39.2,81,29.75,10.0,SE,9.2,-,0.01,,Overcast,140,2013-03-06 23:15:00
3:35 PM,44.6,39.2,81,29.76,10.0,SSE,10.4,-,0.01,,Overcast,150,2013-03-06 23:35:00
3:55 PM,44.6,39.2,81,29.76,10.0,SSE,10.4,16.1,0.02,,Overcast,150,2013-03-06 23:55:00
4:15 PM,44.6,39.2,81,29.78,7.0,SSE,8.1,17.3,0.02,,Overcast,160,2013-03-07 00:15:00
4:35 PM,44.6,39.2,81,29.78,10.0,SSE,11.5,-,0.04,,Mostly Cloudy,150,2013-03-07 00:35:00
4:55 PM,44.6,39.2,81,29.79,9.0,SSE,10.4,16.1,0.06,,Overcast,160,2013-03-07 00:55:00
5:15 PM,44.6,39.2,81,29.79,10.0,SSE,10.4,-,0.01,,Overcast,150,2013-03-07 01:15:00
5:35 PM,44.6,39.2,81,29.80,10.0,SSE,12.7,18.4,0.01,,Overcast,150,2013-03-07 01:35:00
5:55 PM,44.6,39.2,81,29.81,10.0,South,8.1,-,0.03,,Mostly Cloudy,170,2013-03-07 01:55:00
6:35 PM,44.6,39.2,81,29.83,10.0,SSE,10.4,-,N/A,,Overcast,150,2013-03-07 02:35:00
6:55 PM,44.6,39.2,81,29.84,10.0,SSE,8.1,-,N/A,,Overcast,150,2013-03-07 02:55:00
7:35 PM,44.6,39.2,81,29.86,10.0,South,6.9,-,0.01,,Overcast,180,2013-03-07 03:35:00
7:55 PM,44.6,39.2,81,29.87,10.0,SSE,6.9,-,0.01,,Overcast,160,2013-03-07 03:55:00
8:15 PM,44.6,39.2,81,29.87,10.0,SSE,5.8,-,N/A,,Overcast,160,2013-03-07 04:15:00
8:35 PM,44.6,39.2,81,29.88,10.0,SSE,6.9,-,N/A,,Overcast,150,2013-03-07 04:35:00
8:55 PM,44.6,39.2,81,29.89,10.0,SSE,4.6,-,N/A,,Overcast,160,2013-03-07 04:55:00
9:15 PM,44.6,39.2,81,29.89,10.0,SSE,8.1,-,N/A,,Overcast,150,2013-03-07 05:15:00
9:35 PM,44.6,39.2,81,29.90,10.0,SSE,6.9,-,N/A,,Overcast,150,2013-03-07 05:35:00
9:55 PM,44.6,39.2,81,29.91,10.0,SSE,9.2,-,N/A,,Overcast,150,2013-03-07 05:55:00
10:15 PM,44.6,39.2,81,29.92,10.0,SSE,9.2,-,N/A,,Overcast,150,2013-03-07 06:15:00
10:35 PM,44.6,39.2,81,29.92,10.0,SSE,10.4,-,N/A,,Overcast,150,2013-03-07 06:35:00
10:55 PM,44.6,39.2,81,29.93,10.0,SSE,11.5,-,N/A,,Overcast,150,2013-03-07 06:55:00
11:15 PM,44.6,37.4,76,29.94,10.0,SSE,6.9,-,N/A,,Overcast,150,2013-03-07 07:15:00
11:35 PM,44.6,37.4,76,29.94,10.0,SE,6.9,-,N/A,,Overcast,140,2013-03-07 07:35:00
11:55 PM,44.6,37.4,76,29.95,10.0,SSE,9.2,-,N/A,,Overcast,150,2013-03-07 07:55:00